(113271) = 2004 AM9 = 2002 RE153

Discovered at Palomar on 2002-09-12 by NEAT.

Orbit

Orbit type: Main Belt

Note: WebGL enabled browser required.

epoch2024-03-31.0
epoch JD2460400.5
perihelion date2021-12-12.95052
perihelion JD2459561.45052
argument of perihelion (°)226.28574
ascending node (°)233.86066
inclination (°)8.27908
eccentricity0.1271010
perihelion distance (AU)2.3923412
Tisserand w.r.t. Jupiter3.3
ΔV w.r.t. Earth (km/sec)10.0
semimajor axis (AU)2.7406850
mean anomaly (°)182.26486
mean daily motion (°/day)0.21722780
aphelion distance (AU)3.089
period (years)4.54
P-vector [x]-0.17008064
P-vector [y]0.94045776
P-vector [z]0.29429879
Q-vector [x]-0.97854467
Q-vector [y]-0.12594152
Q-vector [z]-0.16306155
absolute magnitude15.76
phase slope0.15
uncertainty0
referenceE2024-GD4
observations used679
oppositions18
arc length (days)9247
first opposition used1998
last opposition used2024
residual rms (arc-secs)0.66
perturbers coarse indicatorM-v
perturbers precise indicator003Ek
first observation date used1998-12-15.0
last observation date used2024-04-09.0
computer nameMPCLINUX
JD of orbit computation2456847.640962
perihelion JD uncertainty (days)7.7639E-05
argument of perihelion uncertainty (°)2.8684E-05
ascending node uncertainty (°)2.2414E-05
inclination uncertainty (°)4.7115E-06
eccentricity uncertainty 3.8778E-08
perihelion distance uncertainty (AU)1.0179E-07
Minimum Orbit Intersection Distances (in AU)
for orbit epoch: 2460400.5, reference: E2024-GD4
Mercury2.08731
Venus1.68054
Earth1.41807
Mars0.83337
Jupiter2.12998
Saturn6.63741
Uranus15.817
Neptune27.1287

Observations

692 total observations over interval: 1998 12 15.96997 – 2023 06 14.320718
These data are available for download (format description).

Date (UT) J2000 RA J2000 Dec Magn Location Ref
1998 12 15.96997 04 01 57.17 +16 46 20.6 19.4 V 910 – Caussols-ODAS MPS 97770
1998 12 15.99301 04 01 56.13 +16 46 13.2 19.4 V 910 – Caussols-ODAS MPS 97770
1998 12 16.02167 04 01 54.83 +16 46 04.3 19.5 V 910 – Caussols-ODAS MPS 97770
1998 12 25.15763 03 56 14.40 +16 04 16.2 18.6 V 691 – Steward Observatory, Kitt Peak-Spacewatch MPS 97770
1998 12 25.17963 03 56 13.57 +16 04 10.0 19.4 V 691 – Steward Observatory, Kitt Peak-Spacewatch MPS 97770
1998 12 25.21192 03 56 12.58 +16 03 57.4 19.9 V 691 – Steward Observatory, Kitt Peak-Spacewatch MPS 97770
1998 12 28.15485 03 54 51.20 +15 52 56.7 19.3 V 691 – Steward Observatory, Kitt Peak-Spacewatch MPS 97770
1998 12 28.17646 03 54 50.61 +15 52 52.7 19.5 V 691 – Steward Observatory, Kitt Peak-Spacewatch MPS 97770
1998 12 28.19805 03 54 50.04 +15 52 47.5 19.5 V 691 – Steward Observatory, Kitt Peak-Spacewatch MPS 97770
2000 04 06.25707 12 40 05.99 -13 14 59.4 18.9 R 699 – Lowell Observatory-LONEOS MPS 97770
2000 04 06.27613 12 40 04.97 -13 14 52.3   699 – Lowell Observatory-LONEOS MPS 97770
2000 04 06.29505 12 40 04.02 -13 14 44.0   699 – Lowell Observatory-LONEOS MPS 97770
2000 04 06.31396 12 40 03.13 -13 14 34.6   699 – Lowell Observatory-LONEOS MPS 97770
2002 09 12.46891 00 03 14.46 +11 44 27.7 19.8   644 – Palomar Mountain/NEAT MPS 61786
2002 09 12.48045 00 03 13.95 +11 44 24.0 19.4   644 – Palomar Mountain/NEAT MPS 61786
2002 09 12.49102 00 03 13.47 +11 44 20.6 19.9   644 – Palomar Mountain/NEAT MPS 61786
2002 09 13.48948 00 02 28.92 +11 39 08.5 19.6   644 – Palomar Mountain/NEAT MPS 61786
2002 09 13.49980 00 02 28.45 +11 39 05.0 19.3   644 – Palomar Mountain/NEAT MPS 61786
2002 09 13.51035 00 02 27.96 +11 39 01.8 19.4   644 – Palomar Mountain/NEAT MPS 61786
2002 09 15.54012 00 00 55.85 +11 27 55.8 20.3   608 – Haleakala-AMOS MPS 82988
2002 09 15.55098 00 00 55.34 +11 27 51.9 20.4   608 – Haleakala-AMOS MPS 82988
2002 09 15.56139 00 00 54.82 +11 27 48.9 20.8   608 – Haleakala-AMOS MPS 82988
2002 09 28.42134 23 50 48.35 +10 03 30.9 20.3   608 – Haleakala-AMOS MPS 82988
2002 09 28.43182 23 50 47.83 +10 03 26.8 20.3   608 – Haleakala-AMOS MPS 82988
2002 09 28.44285 23 50 47.29 +10 03 21.6 20.6   608 – Haleakala-AMOS MPS 82988
2002 10 05.25042 23 45 37.48 +09 12 01.4 19.2   704 – Lincoln Laboratory ETS, New Mexico MPS 63584
2002 10 05.26606 23 45 36.69 +09 11 54.0 19.6   704 – Lincoln Laboratory ETS, New Mexico MPS 63584
2002 10 05.28163 23 45 35.96 +09 11 46.6 19.2   704 – Lincoln Laboratory ETS, New Mexico MPS 63584
2002 10 05.29720 23 45 35.27 +09 11 39.1 19.5   704 – Lincoln Laboratory ETS, New Mexico MPS 63584
2002 10 05.31273 23 45 34.67 +09 11 31.3 19.5   704 – Lincoln Laboratory ETS, New Mexico MPS 63584
2002 10 07.16012 23 44 15.27 +08 57 12.8 18.7 R 699 – Lowell Observatory-LONEOS MPS 63584
2002 10 07.18182 23 44 14.42 +08 57 02.7   699 – Lowell Observatory-LONEOS MPS 63584
2002 10 07.20357 23 44 13.38 +08 56 52.7   699 – Lowell Observatory-LONEOS MPS 63584
2002 10 07.22519 23 44 12.46 +08 56 43.1   699 – Lowell Observatory-LONEOS MPS 63584
2004 01 14.38934 08 48 23.17 +04 31 28.8 18.5   644 – Palomar Mountain/NEAT MPS 97085
2004 01 14.41403 08 48 21.94 +04 31 28.8 18.7   644 – Palomar Mountain/NEAT MPS 97085
2004 01 14.43975 08 48 20.65 +04 31 28.3 18.5   644 – Palomar Mountain/NEAT MPS 97085
2004 01 18.22856 08 45 12.87 +04 32 28.4 18.7   644 – Palomar Mountain/NEAT MPS 97085
2004 01 18.30088 08 45 09.07 +04 32 31.2 18.8   644 – Palomar Mountain/NEAT MPS 97085
2004 01 18.36492 08 45 05.66 +04 32 33.7 18.7   644 – Palomar Mountain/NEAT MPS 97085
2004 01 29.27236 08 35 20.98 +04 50 01.9 19.3   704 – Lincoln Laboratory ETS, New Mexico MPS 97878
2004 01 29.28450 08 35 20.23 +04 50 04.9 19.2   704 – Lincoln Laboratory ETS, New Mexico MPS 97878
2004 01 29.29668 08 35 19.61 +04 50 06.3 19.6   704 – Lincoln Laboratory ETS, New Mexico MPS 97878
2004 01 29.30888 08 35 18.89 +04 50 07.9 19.7   704 – Lincoln Laboratory ETS, New Mexico MPS 97878
2004 01 29.32102 08 35 18.16 +04 50 09.9 19.6   704 – Lincoln Laboratory ETS, New Mexico MPS 97878
2004 01 30.27163 08 34 26.62 +04 52 36.2 19.0   704 – Lincoln Laboratory ETS, New Mexico MPS 97878
2004 01 30.28435 08 34 25.95 +04 52 38.3 19.2   704 – Lincoln Laboratory ETS, New Mexico MPS 97878
2004 01 30.29688 08 34 25.15 +04 52 38.8 19.3   704 – Lincoln Laboratory ETS, New Mexico MPS 97878
2004 01 30.30963 08 34 24.50 +04 52 42.1 19.3   704 – Lincoln Laboratory ETS, New Mexico MPS 97878
2004 01 30.32204 08 34 23.81 +04 52 43.2 19.1   704 – Lincoln Laboratory ETS, New Mexico MPS 97878
2004 02 01.41625 08 32 30.78 +04 58 35.2 19.8   608 – Haleakala-AMOS MPS 98766
2004 02 01.42641 08 32 30.18 +04 58 37.1 19.6   608 – Haleakala-AMOS MPS 98766
2004 02 01.43760 08 32 29.57 +04 58 39.0 19.6   608 – Haleakala-AMOS MPS 98766
2004 02 18.22962 08 19 11.68 +06 02 09.3 19.5   704 – Lincoln Laboratory ETS, New Mexico MPS 100043
2004 02 18.24132 08 19 11.11 +06 02 13.3 19.6   704 – Lincoln Laboratory ETS, New Mexico MPS 100043
2004 02 18.25302 08 19 10.62 +06 02 15.3 19.7   704 – Lincoln Laboratory ETS, New Mexico MPS 100043
2004 02 18.26599 08 19 10.23 +06 02 18.3 19.8   704 – Lincoln Laboratory ETS, New Mexico MPS 100043
2004 02 18.27769 08 19 09.68 +06 02 23.3 20.2   704 – Lincoln Laboratory ETS, New Mexico MPS 100043
2005 05 13.33505 15 41 06.25 -19 12 57.8 19.1 R G96 – Mt. Lemmon Survey MPS 134802
2005 05 13.34307 15 41 05.84 -19 12 55.2 19.1 R G96 – Mt. Lemmon Survey MPS 134802
2005 05 13.35109 15 41 05.39 -19 12 52.8 19.2 R G96 – Mt. Lemmon Survey MPS 134802
2005 05 13.35907 15 41 04.95 -19 12 50.1 19.3 R G96 – Mt. Lemmon Survey MPS 134802
2005 06 06.16561 15 21 41.19 -17 08 06.3 20.7 V 691 – Steward Observatory, Kitt Peak-Spacewatch MPS 135927
2005 06 06.18315 15 21 40.49 -17 08 01.6 21.0 V 691 – Steward Observatory, Kitt Peak-Spacewatch MPS 135927
2005 06 06.20060 15 21 39.72 -17 07 56.6 20.4 V 691 – Steward Observatory, Kitt Peak-Spacewatch MPS 135927
2005 06 11.16731 15 18 30.13 -16 45 32.5 20.6 V 691 – Steward Observatory, Kitt Peak-Spacewatch MPS 136503
2005 06 11.18465 15 18 29.53 -16 45 28.7 20.8 V 691 – Steward Observatory, Kitt Peak-Spacewatch MPS 136503
2005 06 11.20200 15 18 28.87 -16 45 24.0 20.9 V 691 – Steward Observatory, Kitt Peak-Spacewatch MPS 136503
2005 06 13.22207 15 17 19.78 -16 36 55.2 19.8 V G96 – Mt. Lemmon Survey MPS 136503
2005 06 13.22883 15 17 19.60 -16 36 53.6 19.8 V G96 – Mt. Lemmon Survey MPS 136503
2005 06 13.23557 15 17 19.32 -16 36 51.9 20.0 V G96 – Mt. Lemmon Survey MPS 136503
2005 06 13.24234 15 17 19.10 -16 36 50.1 20.3 V G96 – Mt. Lemmon Survey MPS 136503
2007 10 07.43810 03 56 12.92 +22 27 26.3   691 – Steward Observatory, Kitt Peak-Spacewatch MPS 219920
2007 10 07.45574 03 56 12.80 +22 27 23.3   691 – Steward Observatory, Kitt Peak-Spacewatch MPS 219920
2007 10 07.47338 03 56 12.70 +22 27 20.2   691 – Steward Observatory, Kitt Peak-Spacewatch MPS 219920
2007 10 09.37011 03 56 00.82 +22 21 49.6 19.5 r 699 – Lowell Observatory-LONEOS MPS 219920
2007 10 09.38841 03 56 00.57 +22 21 46.5   699 – Lowell Observatory-LONEOS MPS 219920
2007 10 09.40671 03 56 00.34 +22 21 43.6   699 – Lowell Observatory-LONEOS MPS 219920
2007 10 09.42502 03 56 00.17 +22 21 40.2   699 – Lowell Observatory-LONEOS MPS 219920
2007 10 09.43995 03 56 00.09 +22 21 37.7 19.2 V G96 – Mt. Lemmon Survey MPS 219920
2007 10 09.44677 03 56 00.02 +22 21 36.5 19.2 V G96 – Mt. Lemmon Survey MPS 219920
2007 10 09.45362 03 55 59.95 +22 21 35.2 19.4 V G96 – Mt. Lemmon Survey MPS 219920
2007 10 09.46049 03 55 59.88 +22 21 34.0 19.3 V G96 – Mt. Lemmon Survey MPS 219920
2007 10 20.38811 03 52 45.26 +21 40 32.8 19.5 V 703 – Catalina Sky Survey MPS 223203
2007 10 20.39470 03 52 45.04 +21 40 30.9 19.4 V 703 – Catalina Sky Survey MPS 223203
2007 10 20.40137 03 52 44.86 +21 40 29.5 19.4 V 703 – Catalina Sky Survey MPS 223203
2007 10 20.40799 03 52 44.72 +21 40 27.5 18.8 V 703 – Catalina Sky Survey MPS 223203
2007 10 23.32845 03 51 18.76 +21 26 50.5 19.3   704 – Lincoln Laboratory ETS, New Mexico MPS 224425
2007 10 23.34016 03 51 18.45 +21 26 46.1 19.5   704 – Lincoln Laboratory ETS, New Mexico MPS 224425
